Sheppard Air Force Base-Wichita Falls Municipal Airport
KSPS : rendu visible

Aérodrome :











RETROUVEZ-NOUS SUR...

 
LOGIN :

S'inscrire | Disclaimer

   EN    FR    IT 

 









Légende :    VFR   VFR Marginal   IFR   IFR Intensif   IFR Très Intensif
Visi : 
Plafond : 
>= 8 km
>= 3000ft
5 à 8 km
1000 à 3000 ft
1500m à 5 km
500 à 1000 ft
800 à 1500m
200 à 500 ft
< 800m
< 200 ft
Symboles :   Orages  Brouillard  Fortes neiges  Fortes précipitations  Vent > 20 kt






- Altitude de l'aérodrome : 1019 ft
- Code IATA : SPS


KSPS - Sheppard Air Force Base-Wichita Falls Municipal

DERNIER METAR :
  • 282152Z 34012G20KT 10SM BKN055 BKN220 29/15 A2998 RMK AO2 SLP139 T02890150

METARs EXPIRÉS :
  • 282052Z 35012G17KT 10SM SCT060 BKN200 28/15 A2999 RMK AO2 SLP144 T02830150 58009
  • 281952Z 35008G17KT 10SM BKN060 BKN200 29/14 A3000 RMK AO2 SLP147 T02890144

TAF KSPS
Valide du 28 à 18h jusqu'au 29 à 18h UTC


281732Z 2818/2918 02010KT P6SM BKN070
FM290000 36006KT P6SM SCT150
FM291400 04008KT P6SM SKC
FIR KZFW / Amérique du Nord



MET'MAP, la Météo Aéronautique d'un coup d'oeil ! - Copyright ORBIFLY Décembre 2007 - Disclaimer

ORBIFLY MET'MAP TEAM :

Programmation & Développement : Alexandra Zaïnal
Sur une idée originale de : Baudouin d'Aumeries
Assistance à la programmation : Marc-Olivier Méhu
Soutien technique & logistique : Manuel Goepfert

Contact : metmap@orbifly.com




SOURCES & CREDITS :

   NOAA       Earth
Advisory